Weather History for Ithaca, NY

Change the Weather History Date:

Tuesday, February 12, 2013

  Actual Average Record
Temperature  
Mean Temperature 32 °F -  
Max Temperature 34 °F 30 °F 60 °F (1999)
Min Temperature 29 °F 10 °F -20 °F (1979)
Degree Days  
Heating Degree Days 33    
Moisture  
Dew Point 23 °F    
Average Humidity 69    
Maximum Humidity 73    
Minimum Humidity 65    
Precipitation  
Precipitation 0.00 in - - ()
Sea Level Pressure  
Sea Level Pressure 29.89 in    
Wind  
Wind Speed 14 mph (WNW)    
Max Wind Speed 23 mph    
Max Gust Speed 29 mph    
Visibility 10 miles    
Events Snow    
Averages and records for this station are not official NWS values.
T = Trace of Precipitation, MM = Missing Value Source: NWS Daily Summary

Daily Weather History Graph

Daily Weather History Graph

Search for Another Location

Airport:

Trip Planner

Search our weather history database for the weather conditions in past years. The results will help you decide how hot, cold, wet, or windy it might be!

Date:

Astronomy

Feb. 12, 2013 Rise Set
Actual Time 7:06 AM EST 5:34 PM EST
Civil Twilight 6:37 AM EST 6:03 PM EST
Nautical Twilight 6:04 AM EST 6:36 PM EST
Astronomical Twilight 5:31 AM EST 7:09 PM EST
Moon 7:57 AM EST (2/12) 8:38 PM EST (2/12)
Length of Visible Light 11h 26m
Length of Day
10h 28m
Waxing Crescent, 7% of the Moon is Illuminated
Feb 12
Waxing Crescent
Feb 17
First Quarter
Feb 25
Full
Mar 4
Last Quarter
Mar 11
New

Hourly Weather History & Observations

Time (EST) Temp. Windchill Dew Point Humidity Pressure Visibility Wind Dir Wind Speed Gust Speed Precip Events Conditions
12:56 AM 34.9 °F 26.6 °F 26.1 °F 70% 29.75 in 10.0 mi West 11.5 mph - N/A   Overcast
1:56 AM 34.9 °F 26.2 °F 25.2 °F 68% 29.76 in 10.0 mi West 12.7 mph - N/A   Overcast
2:56 AM 34.0 °F 25.0 °F 25.2 °F 70% 29.78 in 10.0 mi West 12.7 mph 23.0 mph N/A   Overcast
3:56 AM 34.0 °F 23.8 °F 24.1 °F 67% 29.78 in 10.0 mi West 16.1 mph - N/A   Overcast
4:42 AM 33.8 °F 24.8 °F 24.8 °F 70% 29.77 in 10.0 mi West 12.7 mph - N/A   Overcast
4:56 AM 34.0 °F 23.0 °F 24.1 °F 67% 29.80 in 10.0 mi West 18.4 mph 24.2 mph N/A   Overcast
5:56 AM 32.9 °F 23.2 °F 23.0 °F 67% 29.82 in 10.0 mi West 13.8 mph - N/A   Overcast
6:09 AM 33.8 °F 22.2 °F 23.0 °F 65% 29.79 in 10.0 mi West 20.7 mph 25.3 mph N/A   Overcast
7:56 AM 32.0 °F 23.0 °F 24.1 °F 73% 29.87 in 10.0 mi WNW 11.5 mph - 0.00 in Snow Light Snow
8:56 AM 32.9 °F 20.4 °F 24.1 °F 70% 29.89 in 10.0 mi WNW 23.0 mph 28.8 mph 0.00 in   Overcast
9:56 AM 32.9 °F 22.0 °F 24.1 °F 70% 29.91 in 10.0 mi WNW 17.3 mph - N/A   Overcast
10:56 AM 32.9 °F 22.0 °F 23.0 °F 67% 29.93 in 10.0 mi West 17.3 mph - N/A   Overcast
11:56 AM 32.9 °F 24.7 °F 24.1 °F 70% 29.94 in 10.0 mi West 10.4 mph 18.4 mph N/A   Overcast
12:56 PM 32.9 °F 20.7 °F 22.1 °F 65% 29.94 in 10.0 mi WNW 21.9 mph 26.5 mph N/A   Overcast
1:56 PM 32.0 °F 21.6 °F 22.1 °F 67% 29.93 in 10.0 mi WNW 15.0 mph - N/A   Overcast
2:56 PM 32.0 °F 22.5 °F 22.1 °F 67% 29.92 in 10.0 mi WNW 12.7 mph - N/A   Overcast
3:56 PM 32.0 °F 21.6 °F 23.0 °F 69% 29.89 in 10.0 mi NW 15.0 mph - N/A   Overcast
4:56 PM 31.1 °F 20.5 °F 21.0 °F 66% 29.92 in 10.0 mi West 15.0 mph - N/A   Overcast
5:56 PM 31.1 °F 21.9 °F 21.0 °F 66% 29.96 in 10.0 mi West 11.5 mph - N/A   Overcast
6:56 PM 31.1 °F 20.9 °F 21.0 °F 66% 29.98 in 10.0 mi West 13.8 mph - 0.00 in   Overcast
7:56 PM 30.0 °F 21.7 °F 22.1 °F 72% 29.99 in 10.0 mi West 9.2 mph - 0.00 in Snow Light Snow
8:56 PM 30.0 °F 22.4 °F 22.1 °F 72% 29.97 in 10.0 mi West 8.1 mph - 0.00 in   Overcast
9:56 PM 30.0 °F 20.5 °F 22.1 °F 72% 29.96 in 10.0 mi West 11.5 mph - 0.00 in   Overcast
10:27 PM 30.2 °F 20.8 °F 21.2 °F 69% 29.90 in 10.0 mi WNW 11.5 mph - N/A   Overcast
10:56 PM 30.0 °F 23.2 °F 22.1 °F 72% 29.94 in 10.0 mi West 6.9 mph - N/A   Overcast
11:56 PM 29.1 °F 20.6 °F 21.0 °F 72% 29.94 in 10.0 mi West 9.2 mph - N/A   Overcast